Back to catalog

STARLINK-37799

AliveCommunicationsSSO
NORAD 69317·PAYLOAD·🇺🇸 United States

Launched May 30, 2026 from Vandenberg Space Force Base

Loading…

Next Passes (next 24 hours)

TLE

FreshSource: CelesTrak SupGP

Epoch: Sep 14, 2026, 15:22 UTC

1 69317C 26119X   26257.64076389 -.00035979  00000+0 -11169-2 0  2571
2 69317  97.2835 282.5260 0001433  97.2987 125.1146 15.33456426    10

Track STARLINK-37799 in real time with AllMySat

Download on the App Store